Terminal Aerodrome Forecast
Issued by NWS Wilmington, OH

Current Version | Previous Version | Text Only | Print | Product List | Glossary Off
Versions: 1 2 3 4 5 6 7 8 9 10 11 12 13 14 15 16

000
FTUS41 KILN 191739
TAFCMH
TAF
KCMH 191739Z 1918/2018 23007KT P6SM VCTS SCT040CB
      TEMPO 1918/1920 BKN040CB
     FM192000 28007KT P6SM SCT045
     FM200000 30006KT P6SM SCT150
     FM200900 VRB02KT 5SM BR FEW250
     FM201200 VRB02KT 2SM BR FEW130
     FM201400 VRB03KT P6SM FEW050=

USA.gov is the U.S. government's official web portal to all federal, state and local government web resources and services.